| time (UTC) | temp F | wind direction | speed MPH | gust MPH | rain 1hr in | rain 24hr in | rain mn in | humidity % | barometer mb |
| 20260508183005 | 57 | 103 | 0.0 | 2.0 | 0.00 | 0.00 | 0.00 | 91 | 1012.5 |
| 20260508181502 | 57 | 103 | 0.0 | 1.0 | 0.00 | 0.00 | 0.00 | 91 | 1012.1 |
| 20260508180103 | 57 | 103 | 0.0 | 2.0 | 0.00 | 0.00 | 0.00 | 90 | 1011.7 |
| 20260508174555 | 58 | 103 | 1.0 | 2.0 | 0.00 | 0.00 | 0.00 | 88 | 1011.4 |
| 20260508173100 | 59 | 103 | 1.0 | 3.0 | 0.00 | 0.00 | 0.00 | 86 | 1011.3 |
| 20260508171553 | 59 | 103 | 2.0 | 7.0 | 0.00 | 0.00 | 0.00 | 86 | 1011.0 |
| 20260508170048 | 59 | 103 | 1.0 | 4.0 | 0.00 | 0.00 | 0.00 | 86 | 1010.9 |
| 20260508164545 | 60 | 103 | 4.0 | 10.0 | 0.00 | 0.00 | 0.00 | 88 | 1010.7 |
| 20260508163047 | 60 | 118 | 5.0 | 14.0 | 0.00 | 0.00 | 0.00 | 88 | 1010.7 |
| 20260508161541 | 61 | 102 | 4.0 | 11.0 | 0.00 | 0.00 | 0.00 | 88 | 1010.4 |
| 20260508160041 | 61 | 82 | 5.0 | 12.0 | 0.00 | 0.00 | 0.00 | 88 | 1010.2 |
| 20260508154536 | 61 | 109 | 5.0 | 11.0 | 0.00 | 0.00 | 0.00 | 88 | 1010.0 |
| 20260508153033 | 62 | 123 | 0.0 | 2.0 | 0.00 | 0.00 | 0.00 | 87 | 1010.3 |
| 20260508150037 | 64 | 110 | 3.0 | 8.0 | 0.00 | 0.00 | 0.00 | 86 | 1009.2 |
| 20260508144539 | 64 | 111 | 4.0 | 9.0 | 0.00 | 0.00 | 0.00 | 87 | 1008.9 |
| 20260508143036 | 63 | 109 | 4.0 | 11.0 | 0.00 | 0.00 | 0.00 | 89 | 1008.5 |
| 20260508141528 | 63 | 109 | 3.0 | 8.0 | 0.00 | 0.00 | 0.00 | 91 | 1008.3 |
| 20260508140034 | 62 | 109 | 4.0 | 10.0 | 0.00 | 0.00 | 0.00 | 92 | 1008.6 |
| 20260508134528 | 62 | 110 | 4.0 | 11.0 | 0.00 | 0.00 | 0.00 | 92 | 1008.6 |
| 20260508133022 | 61 | 113 | 3.0 | 12.0 | 0.00 | 0.00 | 0.00 | 92 | 1008.6 |
| 20260508131521 | 61 | 115 | 3.0 | 8.0 | 0.00 | 0.00 | 0.00 | 92 | 1008.7 |
| 20260508130025 | 61 | 115 | 1.0 | 6.0 | 0.00 | 0.00 | 0.00 | 92 | 1008.8 |
| 20260508124518 | 61 | 115 | 0.0 | 1.0 | 0.00 | 0.00 | 0.00 | 92 | 1009.1 |
| 20260508123021 | 60 | 115 | 0.0 | 3.0 | 0.00 | 0.00 | 0.00 | 92 | 1009.3 |
| 20260508121523 | 61 | 115 | 0.0 | 3.0 | 0.00 | 0.00 | 0.00 | 92 | 1009.2 |
| 20260508120021 | 61 | 115 | 1.0 | 4.0 | 0.00 | 0.00 | 0.00 | 92 | 1009.1 |
| 20260508114528 | 60 | 115 | 1.0 | 4.0 | 0.00 | 0.00 | 0.00 | 92 | 1009.1 |
| 20260508113015 | 58 | 115 | 2.0 | 8.0 | 0.00 | 0.00 | 0.00 | 92 | 1009.3 |
| 20260508111514 | 57 | 115 | 4.0 | 10.0 | 0.00 | 0.00 | 0.00 | 87 | 1009.5 |
| 20260508110012 | 61 | 120 | 4.0 | 12.0 | 0.00 | 0.00 | 0.00 | 80 | 1010.0 |
| 20260508104512 | 66 | 108 | 3.0 | 9.0 | 0.00 | 0.00 | 0.00 | 74 | 1009.2 |
| 20260508103012 | 70 | 231 | 0.0 | 0.0 | 0.00 | 0.00 | 0.00 | 70 | 1009.3 |
| 20260508101510 | 71 | 228 | 0.0 | 0.0 | 0.00 | 0.00 | 0.00 | 74 | 1009.3 |
| 20260508100009 | 71 | 254 | 0.0 | 0.0 | 0.00 | 0.00 | 0.00 | 70 | 1009.6 |
| 20260508094505 | 70 | 253 | 0.0 | 0.0 | 0.00 | 0.00 | 0.00 | 73 | 1010.1 |
| 20260508093002 | 68 | 253 | 0.0 | 0.0 | 0.00 | 0.00 | 0.00 | 75 | 1010.4 |
| 20260508091502 | 69 | 253 | 0.0 | 0.0 | 0.00 | 0.00 | 0.00 | 75 | 1010.8 |
| 20260508090000 | 68 | 252 | 0.0 | 0.0 | 0.00 | 0.00 | 0.00 | 76 | 1011.0 |
| 20260508084559 | 68 | 80 | 0.0 | 0.0 | 0.00 | 0.00 | 0.00 | 78 | 1011.3 |
| 20260508083058 | 68 | 30 | 0.0 | 0.0 | 0.00 | 0.00 | 0.00 | 79 | 1011.5 |
| 20260508081606 | 66 | 30 | 0.0 | 0.0 | 0.00 | 0.00 | 0.00 | 80 | 1011.9 |
| 20260508080059 | 66 | 30 | 0.0 | 0.0 | 0.00 | 0.00 | 0.00 | 79 | 1012.0 |
| 20260508074559 | 68 | 33 | 0.0 | 0.0 | 0.00 | 0.00 | 0.00 | 78 | 1012.3 |
| 20260508073103 | 66 | 34 | 0.0 | 0.0 | 0.00 | 0.00 | 0.00 | 79 | 1012.4 |
| 20260508071552 | 66 | 34 | 0.0 | 0.0 | 0.00 | 0.00 | 0.00 | 80 | 1012.5 |
| 20260508070051 | 64 | 33 | 0.0 | 0.0 | 0.00 | 0.00 | 0.00 | 82 | 1012.4 |
| 20260508064602 | 64 | 33 | 0.0 | 0.0 | 0.00 | 0.00 | 0.00 | 80 | 1012.3 |
| 20260508063047 | 65 | 34 | 0.0 | 0.0 | 0.00 | 0.00 | 0.00 | 79 | 1012.2 |
| 20260508061552 | 63 | 34 | 0.0 | 0.0 | 0.00 | 0.00 | 0.00 | 81 | 1012.1 |
| 20260508060047 | 63 | 34 | 0.0 | 0.0 | 0.00 | 0.00 | 0.00 | 83 | 1012.0 |
| 20260508054603 | 63 | 34 | 0.0 | 0.0 | 0.00 | 0.00 | 0.00 | 84 | 1011.9 |
| 20260508053035 | 61 | 34 | 0.0 | 0.0 | 0.00 | 0.00 | 0.00 | 86 | 1011.8 |
| 20260508051533 | 60 | 34 | 0.0 | 0.0 | 0.00 | 0.00 | 0.00 | 88 | 1011.8 |
| 20260508050037 | 59 | 34 | 0.0 | 0.0 | 0.00 | 0.00 | 0.00 | 91 | 1011.6 |
| 20260508044528 | 57 | 34 | 0.0 | 0.0 | 0.00 | 0.00 | 0.00 | 91 | 1011.7 |
| 20260508043039 | 57 | 34 | 0.0 | 0.0 | 0.00 | 0.00 | 0.00 | 91 | 1011.6 |
| 20260508041532 | 57 | 34 | 0.0 | 0.0 | 0.00 | 0.00 | 0.00 | 89 | 1011.5 |
| 20260508040025 | 57 | 34 | 0.0 | 0.0 | 0.00 | 0.00 | 0.00 | 89 | 1011.2 |
| 20260508034528 | 57 | 34 | 0.0 | 0.0 | 0.00 | 0.00 | 0.00 | 89 | 1011.0 |
| 20260508033022 | 57 | 34 | 0.0 | 0.0 | 0.00 | 0.00 | 0.00 | 89 | 1010.9 |
| 20260508031521 | 57 | 34 | 0.0 | 8.0 | 0.00 | 0.00 | 0.00 | 89 | 1010.6 |
| 20260508030020 | 57 | 96 | 2.0 | 11.0 | 0.00 | 0.00 | 0.00 | 89 | 1010.6 |
| 20260508024522 | 57 | 101 | 3.0 | 11.0 | 0.00 | 0.00 | 0.00 | 89 | 1010.4 |
| 20260508023018 | 57 | 81 | 2.0 | 8.0 | 0.00 | 0.00 | 0.00 | 89 | 1010.3 |
| 20260508021517 | 57 | 80 | 0.0 | 5.0 | 0.00 | 0.00 | 0.00 | 89 | 1010.4 |
| 20260508020017 | 58 | 80 | 1.0 | 10.0 | 0.00 | 0.00 | 0.00 | 89 | 1009.9 |
| 20260508014516 | 58 | 95 | 2.0 | 9.0 | 0.00 | 0.00 | 0.00 | 90 | 1009.7 |
| 20260508013015 | 58 | 87 | 2.0 | 10.0 | 0.00 | 0.00 | 0.00 | 90 | 1009.7 |
| 20260508011514 | 58 | 84 | 1.0 | 10.0 | 0.00 | 0.00 | 0.00 | 90 | 1009.7 |
| 20260508010023 | 57 | 75 | 0.0 | 5.0 | 0.00 | 0.00 | 0.00 | 89 | 1009.6 |
| 20260508004522 | 57 | 72 | 3.0 | 10.0 | 0.00 | 0.00 | 0.00 | 89 | 1009.7 |
| 20260508003011 | 58 | 42 | 1.0 | 5.0 | 0.00 | 0.00 | 0.00 | 89 | 1009.8 |
| 20260508001510 | 58 | 322 | 0.0 | 3.0 | 0.00 | 0.00 | 0.00 | 88 | 1010.0 |
| 20260508000009 | 58 | 322 | 2.0 | 9.0 | 0.00 | 0.00 | 0.00 | 88 | 1010.0 |
| 20260507234513 | 58 | 95 | 0.0 | 4.0 | 0.00 | 0.00 | 0.00 | 88 | 1009.9 |
| 20260507233013 | 58 | 95 | 1.0 | 6.0 | 0.00 | 0.00 | 0.00 | 88 | 1009.8 |
| 20260507231506 | 58 | 96 | 1.0 | 8.0 | 0.00 | 0.00 | 0.00 | 88 | 1009.8 |
| 20260507230104 | 59 | 91 | 2.0 | 9.0 | 0.00 | 0.00 | 0.00 | 88 | 1009.9 |
| 20260507224501 | 59 | 89 | 1.0 | 8.0 | 0.00 | 0.00 | 0.00 | 88 | 1010.3 |
| 20260507223104 | 59 | 88 | 1.0 | 9.0 | 0.00 | 0.00 | 0.00 | 88 | 1010.2 |
| 20260507221603 | 59 | 79 | 0.0 | 9.0 | 0.00 | 0.00 | 0.00 | 88 | 1010.6 |
| 20260507220056 | 59 | 84 | 2.0 | 10.0 | 0.00 | 0.00 | 0.00 | 88 | 1010.7 |
| 20260507214555 | 59 | 139 | 0.0 | 8.0 | 0.00 | 0.00 | 0.00 | 87 | 1011.1 |
| 20260507213053 | 59 | 100 | 4.0 | 15.0 | 0.00 | 0.00 | 0.00 | 87 | 1010.8 |
| 20260507211559 | 59 | 81 | 7.0 | 16.0 | 0.00 | 0.00 | 0.00 | 87 | 1010.9 |
| 20260507210150 | 60 | 110 | 7.0 | 16.0 | 0.00 | 0.00 | 0.00 | 87 | 1011.0 |
| 20260507204548 | 60 | 102 | 6.0 | 18.0 | 0.00 | 0.00 | 0.00 | 87 | 1011.2 |
| 20260507203051 | 60 | 101 | 8.0 | 18.0 | 0.00 | 0.00 | 0.00 | 87 | 1011.4 |
| 20260507201547 | 60 | 88 | 5.0 | 16.0 | 0.00 | 0.00 | 0.00 | 87 | 1011.4 |
| 20260507200047 | 60 | 108 | 7.0 | 16.0 | 0.00 | 0.00 | 0.00 | 87 | 1011.4 |
| 20260507194545 | 60 | 107 | 7.0 | 15.0 | 0.00 | 0.00 | 0.00 | 87 | 1011.4 |
| 20260507193054 | 60 | 101 | 8.0 | 16.0 | 0.00 | 0.00 | 0.00 | 87 | 1011.4 |
| 20260507191544 | 59 | 96 | 8.0 | 16.0 | 0.00 | 0.00 | 0.00 | 87 | 1011.2 |
| 20260507190043 | 60 | 115 | 7.0 | 16.0 | 0.00 | 0.00 | 0.00 | 87 | 1011.2 |
| 20260507184542 | 60 | 90 | 8.0 | 16.0 | 0.00 | 0.00 | 0.00 | 86 | 1011.0 |